Time,TemperatureF,DewpointF,PressureIn,WindDirection,WindDirectionDegrees,WindSpeedMPH,WindSpeedGustMPH,Humidity,HourlyPrecipIn,Conditions,Clouds,dailyrainin,SoftwareType,DateUTC
2013-04-03 00:02:00,49.6,47.0,30.12,West,278,0.0,0.0,92,0.00,,,0.00,weatherlink.com 1.10,2013-04-03 04:02:00,
2013-04-03 00:17:00,48.9,47.0,30.12,West,278,0.0,0.0,93,0.00,,,0.00,weatherlink.com 1.10,2013-04-03 04:17:00,
2013-04-03 00:32:00,48.9,47.0,30.12,West,277,0.0,0.0,94,0.00,,,0.00,weatherlink.com 1.10,2013-04-03 04:32:00,
2013-04-03 00:47:00,48.8,47.0,30.12,West,277,0.0,0.0,94,0.00,,,0.00,weatherlink.com 1.10,2013-04-03 04:47:00,
2013-04-03 01:02:00,48.9,47.0,30.12,West,278,0.0,0.0,94,0.00,,,0.00,weatherlink.com 1.10,2013-04-03 05:02:00,
2013-04-03 01:18:00,48.8,48.0,30.12,West,278,0.0,0.0,95,0.00,,,0.00,weatherlink.com 1.10,2013-04-03 05:18:00,
2013-04-03 01:33:00,48.7,47.0,30.12,West,277,0.0,0.0,95,0.00,,,0.00,weatherlink.com 1.10,2013-04-03 05:33:00,
2013-04-03 01:48:00,49.2,48.0,30.12,West,277,0.0,1.0,95,0.00,,,0.00,weatherlink.com 1.10,2013-04-03 05:48:00,
2013-04-03 02:03:00,49.5,48.0,30.11,West,277,0.0,0.0,96,0.00,,,0.00,weatherlink.com 1.10,2013-04-03 06:03:00,
2013-04-03 02:18:00,50.4,49.0,30.11,West,278,0.0,0.0,95,0.00,,,0.00,weatherlink.com 1.10,2013-04-03 06:18:00,
2013-04-03 02:33:00,50.6,49.0,30.10,West,278,0.0,0.0,95,0.00,,,0.00,weatherlink.com 1.10,2013-04-03 06:33:00,
2013-04-03 02:48:00,50.4,49.0,30.10,West,278,0.0,0.0,95,0.00,,,0.00,weatherlink.com 1.10,2013-04-03 06:48:00,
2013-04-03 03:03:00,50.8,50.0,30.09,West,278,0.0,0.0,95,0.00,,,0.00,weatherlink.com 1.10,2013-04-03 07:03:00,
2013-04-03 03:18:00,50.7,49.0,30.08,West,277,0.0,0.0,95,0.00,,,0.00,weatherlink.com 1.10,2013-04-03 07:18:00,
2013-04-03 03:33:00,51.0,50.0,30.08,West,277,0.0,0.0,95,0.00,,,0.00,weatherlink.com 1.10,2013-04-03 07:33:00,
2013-04-03 03:48:00,50.5,49.0,30.08,West,277,0.0,0.0,95,0.00,,,0.00,weatherlink.com 1.10,2013-04-03 07:48:00,
2013-04-03 04:03:00,50.3,49.0,30.08,West,278,0.0,0.0,95,0.00,,,0.00,weatherlink.com 1.10,2013-04-03 08:03:00,
2013-04-03 04:18:00,50.3,49.0,30.09,West,278,0.0,0.0,96,0.00,,,0.00,weatherlink.com 1.10,2013-04-03 08:18:00,
2013-04-03 04:33:00,50.3,49.0,30.09,West,278,0.0,0.0,96,0.00,,,0.00,weatherlink.com 1.10,2013-04-03 08:33:00,
2013-04-03 04:48:00,50.1,49.0,30.09,West,278,0.0,0.0,95,0.00,,,0.00,weatherlink.com 1.10,2013-04-03 08:48:00,
2013-04-03 05:03:00,49.9,49.0,30.09,NW,322,0.0,1.0,95,0.00,,,0.00,weatherlink.com 1.10,2013-04-03 09:03:00,
2013-04-03 05:18:00,49.6,49.0,30.10,NW,322,0.0,1.0,96,0.00,,,0.00,weatherlink.com 1.10,2013-04-03 09:18:00,
2013-04-03 05:33:00,49.6,49.0,30.10,NNW,327,0.0,0.0,96,0.00,,,0.00,weatherlink.com 1.10,2013-04-03 09:33:00,
2013-04-03 05:48:00,49.5,48.0,30.10,NNW,327,0.0,0.0,96,0.00,,,0.00,weatherlink.com 1.10,2013-04-03 09:48:00,
2013-04-03 06:03:00,49.3,48.0,30.11,NNE,12,1.0,1.0,96,0.00,,,0.00,weatherlink.com 1.10,2013-04-03 10:03:00,
2013-04-03 06:18:00,49.2,48.0,30.11,NNE,12,0.0,1.0,96,0.00,,,0.00,weatherlink.com 1.10,2013-04-03 10:18:00,
2013-04-03 06:33:00,49.5,49.0,30.11,North,357,0.0,3.0,97,0.00,,,0.00,weatherlink.com 1.10,2013-04-03 10:33:00,
2013-04-03 06:48:00,49.5,49.0,30.12,NNE,18,1.0,1.0,97,0.00,,,0.00,weatherlink.com 1.10,2013-04-03 10:48:00,
2013-04-03 07:03:00,49.5,49.0,30.13,East,96,0.0,1.0,97,0.00,,,0.00,weatherlink.com 1.10,2013-04-03 11:03:00,
2013-04-03 07:18:00,49.8,49.0,30.14,NNE,31,2.0,3.0,97,0.00,,,0.00,weatherlink.com 1.10,2013-04-03 11:18:00,
2013-04-03 07:33:00,50.5,49.0,30.15,North,2,2.0,4.0,96,0.00,,,0.00,weatherlink.com 1.10,2013-04-03 11:33:00,
2013-04-03 07:48:00,51.1,50.0,30.16,East,97,1.0,6.0,94,0.00,,,0.00,weatherlink.com 1.10,2013-04-03 11:48:00,
2013-04-03 08:03:00,51.5,50.0,30.17,NE,37,4.0,5.0,93,0.00,,,0.00,weatherlink.com 1.10,2013-04-03 12:03:00,
2013-04-03 08:18:00,52.0,50.0,30.18,NE,42,2.0,8.0,91,0.00,,,0.00,weatherlink.com 1.10,2013-04-03 12:18:00,
2013-04-03 08:33:00,52.5,49.0,30.19,NE,54,6.0,11.0,87,0.00,,,0.00,weatherlink.com 1.10,2013-04-03 12:33:00,
2013-04-03 08:48:00,52.9,48.0,30.20,ENE,78,2.0,12.0,83,0.00,,,0.00,weatherlink.com 1.10,2013-04-03 12:48:00,
2013-04-03 09:03:00,53.0,46.0,30.21,ENE,66,6.0,14.0,77,0.00,,,0.00,weatherlink.com 1.10,2013-04-03 13:03:00,
2013-04-03 09:18:00,53.2,44.0,30.20,ENE,64,9.0,14.0,70,0.00,,,0.00,weatherlink.com 1.10,2013-04-03 13:18:00,
2013-04-03 09:34:00,53.6,42.0,30.20,NW,316,4.0,11.0,66,0.00,,,0.00,weatherlink.com 1.10,2013-04-03 13:34:00,
2013-04-03 09:49:00,53.9,41.0,30.20,East,84,2.0,12.0,61,0.00,,,0.00,weatherlink.com 1.10,2013-04-03 13:49:00,
2013-04-03 10:04:00,54.5,39.0,30.20,NNE,14,5.0,13.0,57,0.00,,,0.00,weatherlink.com 1.10,2013-04-03 14:04:00,
2013-04-03 10:19:00,55.0,38.0,30.22,NNE,33,8.0,12.0,53,0.00,,,0.00,weatherlink.com 1.10,2013-04-03 14:19:00,
2013-04-03 10:34:00,55.3,37.0,30.22,North,355,2.0,12.0,51,0.00,,,0.00,weatherlink.com 1.10,2013-04-03 14:34:00,
2013-04-03 10:49:00,56.6,36.0,30.21,NE,41,8.0,13.0,46,0.00,,,0.00,weatherlink.com 1.10,2013-04-03 14:49:00,
2013-04-03 11:04:00,56.8,35.0,30.22,ENE,66,5.0,13.0,44,0.00,,,0.00,weatherlink.com 1.10,2013-04-03 15:04:00,
2013-04-03 11:19:00,57.2,34.0,30.23,NNW,345,3.0,12.0,42,0.00,,,0.00,weatherlink.com 1.10,2013-04-03 15:19:00,
2013-04-03 11:34:00,58.0,34.0,30.23,NE,54,8.0,13.0,40,0.00,,,0.00,weatherlink.com 1.10,2013-04-03 15:34:00,
2013-04-03 11:49:00,58.0,33.0,30.24,NE,45,8.0,10.0,39,0.00,,,0.00,weatherlink.com 1.10,2013-04-03 15:49:00,
2013-04-03 12:04:00,59.5,33.0,30.24,North,8,6.0,10.0,37,0.00,,,0.00,weatherlink.com 1.10,2013-04-03 16:04:00,
2013-04-03 12:19:00,59.5,33.0,30.24,NNW,345,5.0,10.0,37,0.00,,,0.00,weatherlink.com 1.10,2013-04-03 16:19:00,
2013-04-03 12:34:00,59.6,34.0,30.23,North,355,1.0,11.0,39,0.00,,,0.00,weatherlink.com 1.10,2013-04-03 16:34:00,
2013-04-03 12:49:00,59.9,33.0,30.22,NE,56,6.0,10.0,37,0.00,,,0.00,weatherlink.com 1.10,2013-04-03 16:49:00,
2013-04-03 13:04:00,60.3,34.0,30.21,WNW,292,4.0,9.0,38,0.00,,,0.00,weatherlink.com 1.10,2013-04-03 17:04:00,
2013-04-03 13:19:00,61.0,36.0,30.21,East,82,6.0,10.0,40,0.00,,,0.00,weatherlink.com 1.10,2013-04-03 17:19:00,
2013-04-03 13:34:00,61.7,37.0,30.21,East,87,8.0,9.0,40,0.00,,,0.00,weatherlink.com 1.10,2013-04-03 17:34:00,
2013-04-03 14:04:00,62.0,38.0,30.19,ENE,58,6.0,8.0,41,0.00,,,0.00,weatherlink.com 1.10,2013-04-03 18:04:00,
2013-04-03 14:19:00,63.1,40.0,30.19,NE,52,7.0,8.0,43,0.00,,,0.00,weatherlink.com 1.10,2013-04-03 18:19:00,
2013-04-03 14:34:00,62.3,41.0,30.19,East,93,4.0,9.0,46,0.00,,,0.00,weatherlink.com 1.10,2013-04-03 18:34:00,
2013-04-03 14:49:00,62.1,41.0,30.19,SE,139,0.0,7.0,47,0.00,,,0.00,weatherlink.com 1.10,2013-04-03 18:49:00,
2013-04-03 15:04:00,61.1,41.0,30.18,SE,142,2.0,12.0,47,0.00,,,0.00,weatherlink.com 1.10,2013-04-03 19:04:00,
2013-04-03 15:19:00,60.4,41.0,30.19,East,95,7.0,8.0,49,0.00,,,0.00,weatherlink.com 1.10,2013-04-03 19:19:00,
2013-04-03 15:34:00,59.9,41.0,30.19,SSE,158,3.0,8.0,50,0.00,,,0.00,weatherlink.com 1.10,2013-04-03 19:34:00,
2013-04-03 15:49:00,59.7,40.0,30.18,ESE,107,5.0,10.0,49,0.00,,,0.00,weatherlink.com 1.10,2013-04-03 19:49:00,
2013-04-03 16:04:00,59.3,40.0,30.19,ESE,115,2.0,9.0,50,0.00,,,0.00,weatherlink.com 1.10,2013-04-03 20:04:00,
2013-04-03 16:19:00,59.1,42.0,30.19,East,81,1.0,8.0,53,0.00,,,0.00,weatherlink.com 1.10,2013-04-03 20:19:00,
2013-04-03 16:34:00,59.3,43.0,30.19,ENE,63,8.0,8.0,55,0.00,,,0.00,weatherlink.com 1.10,2013-04-03 20:34:00,
2013-04-03 16:49:00,58.6,43.0,30.19,NE,43,1.0,7.0,57,0.00,,,0.00,weatherlink.com 1.10,2013-04-03 20:49:00,
2013-04-03 17:04:00,57.9,43.0,30.20,NE,55,2.0,6.0,59,0.00,,,0.00,weatherlink.com 1.10,2013-04-03 21:04:00,
2013-04-03 17:19:00,57.3,44.0,30.20,ESE,106,2.0,9.0,62,0.00,,,0.00,weatherlink.com 1.10,2013-04-03 21:19:00,
2013-04-03 17:34:00,57.1,44.0,30.20,ENE,76,3.0,6.0,61,0.00,,,0.00,weatherlink.com 1.10,2013-04-03 21:34:00,
2013-04-03 17:49:00,56.4,44.0,30.20,East,85,4.0,7.0,63,0.00,,,0.00,weatherlink.com 1.10,2013-04-03 21:49:00,
2013-04-03 18:04:00,56.0,44.0,30.20,ENE,74,4.0,8.0,65,0.00,,,0.00,weatherlink.com 1.10,2013-04-03 22:04:00,
2013-04-03 18:19:00,55.5,44.0,30.20,East,79,1.0,9.0,66,0.00,,,0.00,weatherlink.com 1.10,2013-04-03 22:19:00,
2013-04-03 18:34:00,55.4,45.0,30.21,SE,130,3.0,4.0,67,0.00,,,0.00,weatherlink.com 1.10,2013-04-03 22:34:00,
2013-04-03 18:49:00,54.9,44.0,30.21,ESE,115,5.0,7.0,67,0.00,,,0.00,weatherlink.com 1.10,2013-04-03 22:49:00,
2013-04-03 19:04:00,54.5,44.0,30.22,East,93,3.0,5.0,68,0.00,,,0.00,weatherlink.com 1.10,2013-04-03 23:04:00,
2013-04-03 19:19:00,54.2,44.0,30.22,East,79,3.0,4.0,69,0.00,,,0.00,weatherlink.com 1.10,2013-04-03 23:19:00,
2013-04-03 19:34:00,53.9,44.0,30.22,ESE,114,2.0,6.0,70,0.00,,,0.00,weatherlink.com 1.10,2013-04-03 23:34:00,
2013-04-03 19:49:00,53.7,44.0,30.22,SE,143,1.0,5.0,71,0.00,,,0.00,weatherlink.com 1.10,2013-04-03 23:49:00,
2013-04-03 20:04:00,53.4,45.0,30.23,East,80,1.0,5.0,72,0.00,,,0.00,weatherlink.com 1.10,2013-04-04 00:04:00,
2013-04-03 20:20:00,53.2,45.0,30.23,ESE,116,0.0,2.0,73,0.00,,,0.00,weatherlink.com 1.10,2013-04-04 00:20:00,
2013-04-03 20:35:00,53.2,45.0,30.24,East,99,0.0,3.0,73,0.00,,,0.00,weatherlink.com 1.10,2013-04-04 00:35:00,
2013-04-03 20:50:00,53.2,44.0,30.24,East,99,1.0,2.0,72,0.00,,,0.00,weatherlink.com 1.10,2013-04-04 00:50:00,
2013-04-03 21:05:00,53.2,44.0,30.24,ESE,102,0.0,3.0,72,0.00,,,0.00,weatherlink.com 1.10,2013-04-04 01:05:00,
2013-04-03 21:20:00,53.2,44.0,30.25,East,79,3.0,4.0,72,0.00,,,0.00,weatherlink.com 1.10,2013-04-04 01:20:00,
2013-04-03 21:35:00,53.4,44.0,30.25,ESE,102,1.0,4.0,71,0.00,,,0.00,weatherlink.com 1.10,2013-04-04 01:35:00,
2013-04-03 21:50:00,53.4,44.0,30.25,ESE,106,2.0,3.0,71,0.00,,,0.00,weatherlink.com 1.10,2013-04-04 01:50:00,
2013-04-03 22:05:00,53.3,44.0,30.25,East,90,3.0,3.0,71,0.00,,,0.00,weatherlink.com 1.10,2013-04-04 02:05:00,
2013-04-03 22:20:00,53.5,44.0,30.25,WNW,299,0.0,2.0,69,0.00,,,0.00,weatherlink.com 1.10,2013-04-04 02:20:00,
2013-04-03 22:35:00,53.4,43.0,30.25,ESE,123,0.0,4.0,68,0.00,,,0.00,weatherlink.com 1.10,2013-04-04 02:35:00,
2013-04-03 22:50:00,53.3,43.0,30.25,ESE,120,1.0,2.0,68,0.00,,,0.00,weatherlink.com 1.10,2013-04-04 02:50:00,
2013-04-03 23:05:00,53.3,43.0,30.26,ESE,114,0.0,3.0,68,0.00,,,0.00,weatherlink.com 1.10,2013-04-04 03:05:00,
2013-04-03 23:20:00,53.3,43.0,30.26,ESE,105,0.0,3.0,68,0.00,,,0.00,weatherlink.com 1.10,2013-04-04 03:20:00,
2013-04-03 23:35:00,53.3,43.0,30.26,ENE,61,0.0,4.0,69,0.00,,,0.00,weatherlink.com 1.10,2013-04-04 03:35:00,
2013-04-03 23:50:00,53.2,44.0,30.26,ENE,63,0.0,3.0,70,0.00,,,0.00,weatherlink.com 1.10,2013-04-04 03:50:00,